EHI
0 0 0 0 0 0 0 0 0 0 0 0 0 0 0 0 0 0 0 0 0 0 0 0 0 0 0 0 0 0 0 0 0 0 0 0 0 0 0 0 0 0 0
0 0 0 0 0 0 0 0 0 0 0 0 0 0 0 0 0 0 0 0 0 0 0 0 0 0 0 0 0 0 0 0 0 0 0 0 0 0 0 0 0 0 0
0 0 0 0 0 0 0 0 0 0 0 0 0 0 0 0 0 0 0 0 0 0 0 0 0 0 0 0 0 0 0 0 0 0 0 0 0 0 0 0 0 0 0
0 0 0 0 0 0 0 0 0 0 0 0 0 0 0 0 0 0 0 0 0 0 0 0 0 0 0 0 0 0 0 0 0 0 0 0 0 0 0 0 0 0 0
0 0 0 0 0 0 0 0 0 0 0 0 0 0 0 0 0 0 0 0 0 0 0 0 0 0 0 0 0 0 0 0 0 0 0 0 0 0 0 0 0 0 0
0 0 0 0 0 0 0 0 0 0 0 0 0 0 0 0 0 0 0 0 0 0 0 0 0 0 0 0 0 0 0 0 0 0 0 0 0 0 0 0 0 0 0
0 0 0 0 0 0 0 0 0 0 0 0 0 0 0 0 0 0 0 0 0 0 0 0 0 0 0 0 0 0 0 0 0 0 0 0 0 0 0 0 0 0 0
0 0 0 0 0 0 0 0 0 0 0 0 0 0 0 0 0 0 0 0 0 0 0 0 0 0 0 0 0 0 0 0 0 0 0 0 0 0 0 0 0 0 0
0 0 0 0 0 0 0 0 0 0 0 0 0 0 0 0 0 0 0 0 0 0 0 0 0 0 0 0 0 0 0 0 0 0 0 0 0 0 0 0 0 0 0
0 0 0 0 0 0 0 0 0 0 0 0 0 0 0 0 0 0 0 0 0 0 0 0 0 0 0 0 0 0 0 0 0 0 0 0 0 0 0 0 0 0 0
0 0 0 0 0 0 0 0 0 0 0 0 0 0 0 0 0 0 0 0 0 0 0 0 0 0 0 0 0 0 0 0 0 0 0 0 0 0 0 0 0 0 0
0 0 0 0 0 0 0 0 0 0 0 0 0 0 0 0 0 0 0 0 0 0 0 0 0 0 0 0 0 0 0 0 0 0 0 0 0 0 0 0 0 0 0
0 0 0 0 0 0 0 0 0 0 0 0 0 0 0 0 0 0 0 0 0 0 0 0 0 0 0 0 0 0 0 0 0 0 0 0 0 0 0 0 0 0 0
0 0 0 0 0 0 0 0 0 0 0 0 0 0 0 0 0 0 0 0 0 0 0 0 0 0 0 0 0 0 0 0 0 0 0 0 0 0 0 0 0 0 0
0 0 0 0 0 0 0 0 0 0 0 0 0 0 0 0 0 0 0 0 0 0 0 0 0 0 0 0 0 0 0 0 0 0 0 0 0 0 0 0 0 0 0
0 0 0 0 0 0 0 0 0 0 0 0 0 0 0 0 0 0 0 0 0 0 0 0 0 0 0 0 0 0 0 0 0 0 0 0 0 0 0 0 0 0 0
0 0 0 0 0 0 0 0 0 0 0 0 0 0 0 0 0 0 0 0 0 0 0 0 0 0 0 0 0 0 0 0 0 0 0 0 0 0 0 0 0 0 0
0 0 0 0 0 0 0 0 0 0 0 0 0 0 0 0 0 0 0 0 0 0 0 0 0 0 0 0 0 0 0 0 0 0 0 0 0 0 0 0 0 0 0
0 0 0 0 0 0 0 0 0 0 0 0 0 0 0 0 0 0 0 0 0 0 0 0 0 0 0 0 0 0 0 0 0 0 0 0 0 0 0 0 0 0 0
0 0 0 0 0 0 0 0 0 0 0 0 0 0 0 0 0 0 0 0 0 0 0 0 0 0 0 0 0 0 0 0 0 0 0 0 0 0 0 0 0 0 0
0 0 0 0 0 0 0 0 0 0 0 0 0 0 0 0 0 0 0 0 0 0 0 0 0 0 0 0 0 0 0 0 0 0 0 0 0 0 0 0 0 0 0
0 0 0 0 0 0 0 0 0 0 0 0 0 0 0 0 0 0 0 0 0 0 0 0 0 0 0 0 0 0 0 0 0 0 0 0 0 0 0 0 0 0 0
0 0 0 0 0 0 0 0 0 0 0 0 0 0 0 0 0 0 0 0 0 0 0 0 0 0 0 0 0 0 0 0 0 0 0 0 0 0 0 0 0 0 0
0 0 0 0 0 0 0 0 0 0 0 0 0 0 0 0 0 0 0 0 0 0 0 0 0 0 0 0 0 0 0 0 0 0 0 0 0 0 0 0 0 0 0
0 0 0 0 0 0 0 0 0 0 0 0 0 0 0 0 0 0 0 0 0 0 0 0 0 0 0 0 0 0 0 0 0 0 0 0 0 0 0 0 0 0 0
0 0 0 0 0 0 0 0 0 0 0 0 0 0 0 0 0 0 0 0 0 0 0 0 0 0 0 0 0 0 0 0 0 0 0 0 0 0 0 0 0 0 0
Wind_Speed
5 7 8 8 8 9 10 9 9 8 4 3 3 2 2 2 2 3 3 3 3 3 2 3 5 5 5 7 7 7 9 9 7 7 9 10 11 12 11 12 12 14 15
6 8 8 9 9 9 9 10 10 10 7 4 3 3 4 5 4 6 8 9 9 8 7 6 5 5 5 6 6 6 6 6 5 4 6 7 6 8 10 10 11 13 12
5 5 6 7 8 9 9 9 11 12 11 8 6 6 5 5 6 7 6 8 8 9 8 8 6 6 5 5 6 6 7 7 5 5 7 8 8 5 5 8 10 12 11
4 4 5 6 7 7 7 9 11 13 12 10 11 12 9 7 5 4 4 6 8 8 9 8 8 7 6 6 7 7 6 7 7 6 5 8 9 11 9 5 6 9 10
5 5 5 6 6 6 7 8 10 12 11 11 10 10 8 5 3 4 6 7 7 7 9 8 8 7 6 7 7 7 7 5 5 6 7 7 8 8 10 13 8 6 6
5 5 5 6 6 6 7 7 11 11 9 10 10 10 9 7 7 7 7 6 5 5 9 8 7 7 6 7 7 7 7 6 6 6 5 6 6 8 8 13 14 12 8
6 6 6 6 6 6 6 7 10 9 8 9 9 8 8 8 8 6 6 6 5 5 8 8 8 7 8 7 7 7 8 7 8 7 6 6 6 6 8 11 13 15 11
6 6 6 6 6 6 6 7 8 8 7 8 8 7 7 5 5 6 5 6 5 5 8 8 8 9 9 9 8 7 8 7 7 9 9 7 6 6 7 8 12 15 13
7 6 6 5 6 6 5 6 7 7 7 7 7 8 7 7 6 6 5 4 5 6 7 8 8 8 9 9 9 7 8 8 7 8 8 7 6 6 6 6 7 10 16
7 6 5 5 5 5 5 6 7 7 7 7 7 7 6 6 6 5 6 6 6 6 7 7 8 8 8 9 9 8 8 8 8 7 9 8 7 7 6 6 6 7 10
8 6 6 6 5 5 5 6 7 7 7 7 6 6 6 6 5 5 5 6 6 7 7 7 8 9 9 9 10 9 10 10 10 8 9 10 10 8 7 7 7 7 7
6 7 7 6 6 6 6 6 6 6 6 5 6 5 5 5 5 5 6 6 6 6 7 7 8 8 9 9 10 10 10 11 10 9 9 10 10 10 9 8 9 9 8
7 6 6 6 6 5 5 6 6 5 5 5 5 5 5 5 6 6 6 6 7 7 7 8 8 9 10 10 9 9 10 10 9 9 10 11 12 12 10 11 11 9 9
7 7 6 6 6 5 5 5 5 4 4 4 5 5 5 5 6 6 6 6 7 8 9 9 9 10 11 10 10 12 12 10 9 9 9 11 12 14 14 12 9 10 11
7 7 7 6 5 5 4 4 4 4 4 4 4 4 5 5 5 6 6 6 7 9 8 9 10 10 10 10 15 14 14 13 12 11 10 11 18 22 19 17 15 14 13
7 7 7 6 5 4 4 3 3 3 3 4 4 4 5 5 6 6 7 7 8 8 9 10 11 12 12 22 26 22 14 13 13 15 14 14 15 19 27 29 29 26 20
8 8 7 6 5 4 4 3 2 2 3 3 4 5 5 6 6 7 7 8 8 9 10 10 11 12 15 25 26 27 18 12 13 14 14 15 16 22 15 22 27 25 29
7 7 6 5 4 4 4 3 3 3 3 4 4 5 5 6 6 7 7 8 8 9 9 11 11 12 15 25 27 28 15 12 13 13 14 15 15 16 22 20 20 19 19
6 5 5 5 5 4 4 3 3 3 3 4 5 5 6 6 7 7 8 8 9 10 9 11 11 12 15 23 26 27 12 12 13 13 14 17 15 25 32 24 22 22 19
5 6 6 6 5 3 3 3 2 3 4 5 5 6 6 6 7 7 7 7 8 10 11 12 10 11 13 21 26 27 12 13 13 13 12 19 24 30 34 23 20 21 20
6 6 6 5 4 3 3 2 2 3 4 5 5 6 6 6 7 6 6 9 10 10 10 12 10 10 13 19 24 27 14 13 15 14 13 13 28 33 34 30 18 23 26
6 6 6 4 3 2 1 1 3 4 5 5 6 6 7 7 8 7 8 8 9 11 11 12 12 7 9 15 21 27 25 25 17 14 13 16 30 33 33 24 26 33 27
5 5 5 4 2 1 1 2 4 5 5 5 6 7 7 7 7 7 9 8 7 8 10 10 11 10 7 10 23 26 28 29 18 14 24 28 30 29 21 24 31 25 15
5 4 4 3 1 1 1 3 5 5 5 6 7 7 7 7 6 6 6 7 8 9 11 11 12 12 11 9 10 12 14 19 17 14 18 24 25 22 22 21 17 13 14
4 4 3 2 1 2 3 4 5 4 5 6 7 7 7 7 7 6 5 8 7 11 14 11 11 13 13 16 27 22 15 15 16 19 11 10 12 13 13 13 13 13 14
4 3 2 0 2 3 5 5 5 4 5 6 6 5 5 6 7 8 9 13 15 21 23 23 20 16 20 28 29 29 29 29 29 20 12 13 13 14 15 16 16 15 15
Wind_Direction
14 15 18 17 22 24 25 24 29 19 35 70 86 87 50 26 24 16 6 358 350 335 312 301 301 300 287 286 283 278 277 275 272 275 277 268 257 254 253 250 249 249 246
39 25 24 26 30 28 25 33 36 34 38 58 74 83 82 58 52 47 45 39 38 32 31 18 3 350 336 328 320 308 293 285 268 259 279 283 266 244 245 247 247 249 247
87 52 39 36 35 33 28 42 43 43 42 49 63 63 57 49 39 32 32 29 35 34 29 23 15 5 2 349 338 335 319 309 299 256 267 288 289 283 248 243 246 246 245
107 86 66 53 43 35 35 48 51 50 46 51 65 70 70 63 37 26 25 23 27 28 22 17 11 5 0 354 347 348 334 326 322 315 283 283 296 298 298 255 252 259 257
131 107 85 74 58 47 50 55 61 57 53 58 65 73 71 67 49 34 29 22 16 20 16 11 6 0 354 346 342 340 336 329 322 320 315 313 311 301 305 304 301 286 272
143 116 95 85 70 59 59 63 70 62 56 62 63 69 69 57 46 33 24 14 5 7 11 5 0 353 348 341 337 330 327 321 319 317 314 315 313 318 312 306 307 301 295
153 134 113 95 84 73 69 71 77 68 58 62 59 58 60 55 48 32 20 13 4 358 359 358 353 350 343 337 335 328 324 318 322 316 312 307 301 305 308 307 307 304 299
162 147 132 116 102 91 82 80 80 73 62 63 59 52 50 50 41 29 19 12 360 348 353 351 348 344 341 341 336 327 322 321 318 318 313 307 304 304 306 306 311 309 304
167 155 137 121 113 102 89 87 86 76 63 62 64 52 45 41 33 22 15 6 356 352 351 345 342 338 336 336 333 326 321 322 319 313 307 306 304 303 301 303 308 308 309
163 153 137 125 115 105 92 78 77 75 65 58 57 57 42 34 24 18 10 359 349 344 339 339 336 333 331 332 329 324 321 326 321 316 317 316 314 310 306 305 301 294 296
165 153 137 126 115 97 83 73 67 65 59 59 58 49 36 25 18 12 359 347 340 337 337 335 333 332 332 330 326 322 326 324 319 320 324 321 318 314 310 301 296 289 286
156 144 135 125 110 94 78 68 62 60 58 61 57 45 28 17 9 358 348 343 339 334 333 329 328 329 330 324 319 318 324 317 316 318 318 316 314 305 298 295 291 287 280
143 133 128 120 109 95 80 67 59 59 60 63 54 36 18 7 358 346 341 341 339 334 335 334 332 330 328 322 315 314 314 311 309 311 312 312 309 304 300 296 292 288 295
141 134 125 114 106 95 83 73 60 57 65 59 45 27 6 354 344 336 337 338 335 336 336 332 328 326 324 318 320 321 316 312 309 305 305 307 306 306 307 304 300 306 304
137 136 129 121 112 101 90 81 69 57 59 51 34 9 349 340 338 335 334 332 332 335 326 326 327 326 324 326 327 323 321 318 315 313 307 305 310 311 312 313 314 310 303
139 134 132 130 128 124 115 99 78 60 55 42 15 350 342 339 337 332 331 330 329 328 329 330 328 327 328 325 327 327 319 316 317 316 313 309 308 310 316 313 310 309 307
147 147 148 146 141 136 128 115 91 65 49 23 357 343 337 332 328 330 332 332 329 328 328 325 322 319 317 323 326 324 322 314 311 308 309 311 312 315 305 305 309 307 303
150 152 147 136 124 113 108 104 80 53 26 2 342 331 326 322 322 326 328 326 324 324 319 316 313 312 315 323 324 323 322 309 303 303 304 305 306 308 312 310 308 304 301
150 140 131 125 115 107 107 99 65 28 3 341 325 317 317 320 325 326 322 320 320 318 312 310 310 311 314 320 323 325 315 308 306 305 307 310 309 311 317 317 311 308 305
112 114 114 112 108 99 98 86 38 360 332 314 306 306 312 317 316 310 308 310 311 307 309 309 307 305 308 314 324 325 315 314 312 310 308 312 315 316 319 318 314 312 309
117 120 117 111 106 95 90 69 347 311 298 300 304 310 314 313 305 302 303 305 306 308 308 308 308 302 305 317 322 323 323 317 316 316 315 313 317 321 322 323 316 309 312
125 121 116 115 108 104 107 330 298 291 298 306 310 310 309 309 313 306 301 300 304 310 311 310 309 299 299 315 319 322 323 322 318 315 313 314 320 325 325 323 315 318 320
130 121 128 132 133 134 151 296 293 303 311 314 311 307 304 297 293 294 301 307 308 309 310 309 310 312 310 313 320 321 321 323 321 313 316 321 324 326 323 317 320 322 316
133 128 135 145 177 283 308 289 295 308 314 310 305 301 298 294 289 289 293 303 307 306 307 309 313 314 314 313 312 314 318 321 320 315 318 324 322 320 319 320 319 314 309
135 135 143 161 266 306 308 303 304 310 306 298 294 294 294 292 297 295 291 301 288 297 308 311 312 314 316 315 320 324 322 322 322 328 323 318 320 321 321 319 316 314 314
139 137 137 185 304 313 308 305 304 300 294 296 296 294 297 297 301 304 305 304 308 312 312 313 314 314 313 317 321 324 324 329 332 333 324 322 321 321 321 320 318 317 317